{"data":{"norad_id":64036,"intl_designator":"2025-102Q","name":"STARLINK-34085","alt_names":[],"object_type":"PAYLOAD","status":"ACTIVE","operator":null,"country":"US","launch_date":"2025-05-16","launch_site_code":"AFWTR","launch_vehicle":null,"mission":null,"orbit_class":"UNKNOWN","rcs_meters":null,"size_class":null,"mass_kg":null,"dimensions":null,"purposes":["comms"],"wikipedia_slug":null,"has_3d_model":false,"image_url":null,"decayed_at":null,"tle_current":{"epoch":"2026-05-24T19:44:31.086528Z","epoch_age_seconds":87513,"freshness":"FRESH","line1":"1 64036U 25102Q   26144.82258202  .00005105  00000+0  43520-3 0  9992","line2":"2 64036  70.0006 282.5892 0003134 269.9893  90.0907 14.98344121 57359","mean_motion":14.98344121,"eccentricity":0.0003134,"inclination_deg":70.0006,"raan_deg":282.5892,"arg_perigee_deg":269.9893,"mean_anomaly_deg":90.0907,"bstar":0.0004352,"rev_number":5735,"period_min":96.106093374527,"perigee_km":569.83404649315,"apogee_km":574.19040002629,"semimajor_km":6950.1492232597,"source":"CELESTRAK","updated_at":"2026-05-25T13:38:20.227303Z"}}}